User: anonymous   Login
Location: Gwatt
(46.7204°N, 7.6223°E)
Time: 09:22:01
(UTC+00:00)
Language:

Transit 2A Rocket - Orbit

View from above orbital plane
View from above orbital plane
View from above satellite
View from above satellite

Ground track
Ground track

The orbit data is extracted from the following two-line orbital elements,

1 00047U 60007C   21023.96567838 -.00000025  00000-0  19329-4 0  9990
2 00047  66.6662 285.3482 0223097 143.4754 218.1805 14.42127216166477
Epoch (UTC): 23 January 2021 23:10:34
Eccentricity: 0.0223097
inclination: 66.6662°
perigee height: 592 km
apogee height: 910 km
right ascension of ascending node: 285.3482°
argument of perigee: 143.4754°
revolutions per day: 14.42127216
mean anomaly at epoch: 218.1805°
orbit number at epoch: 16647

The dashed part of the orbit path shows where the satellite is in the earth's shadow,  

DLR